Regional Weather Roundup
Issued by NWS Portland, ME

Current Version | Previous Version | Text Only | Print | Product List | Glossary Off
Versions: 1 2 3 4 5 6 7 8 9 10 11 12 13 14 15 16 17 18 19 20 21 22 23 24 25 26 27 28 29 30 31 32 33 34 35 36 37 38 39 40 41 42 43 44 45 46 47 48 49 50
000 ASUS41 KGYX 191505 RWRGYX WEATHER ROUNDUP FOR MAINE AND NEW HAMPSHIRE NATIONAL WEATHER SERVICE GRAY ME 1000 AM EST SUN NOV 19 2017 MEZ002-005-006-010-012-015-018-020-021-024-026-027-029-191600- MAINE CITY SKY/WX TMP DP RH WIND PRES REMARKS PORTLAND CLOUDY 54 53 97 S12G23 29.10F SANFORD N/A 57 56 96 S7 29.08F WISCASSET CLOUDY 57 56 96 S13G22 29.13F ROCKLAND LGT RAIN 55 54 96 S16G23 29.14F FOG FRYEBURG RAIN 36 36 100 CALM 29.10F FOG LEWISTONAUBURN LGT RAIN 41 40 96 CALM 29.09F FOG AUGUSTA LGT RAIN 55 54 96 S10G21 29.08F WATERVILLE LGT RAIN 55 54 96 S7 29.04F BANGOR LGT RAIN 56 54 93 S14G22 29.11F GREENVILLE NOT AVBL MILLINOCKET LGT RAIN 45 45 100 E5 29.11F VSB 1/4 HOULTON LGT RAIN 43 43 100 SE12 29.13F PRESQUE ISLE LGT RAIN 40 39 97 S7 29.14F FRENCHVILLE LGT RAIN 34 33 96 E14 29.12F FOG CARIBOU LGT RAIN 38 36 92 E7 29.13F FOG $$ NHZ002-005-008-009-011-012-014-191600- NEW HAMPSHIRE CITY SKY/WX TMP DP RH WIND PRES REMARKS PORTSMOUTH CLOUDY 58 56 92 S12 29.09F ROCHESTER CLOUDY 56 56 100 S8 29.08F NASHUA LGT RAIN 57 56 96 VRB6 29.11F MANCHESTER LGT RAIN 56 55 97 S12 29.08F FOG CONCORD CLOUDY 52 51 97 S7 29.08F FOG LACONIA LGT RAIN 44 43 96 N3 29.07F FOG PLYMOUTH DRIZZLE 35 35 99 CALM 29.08F BERLIN LGT RAIN 40 40 100 CALM 29.03F FOG WHITEFIELD LGT RAIN 44 44 100 CALM 29.02F JAFFREY CLOUDY 55 53 93 W22G36 29.14R KEENE LGT RAIN 47 42 83 SW9G21 29.18R LEBANON LGT RAIN 53 50 89 SW14G22 29.06R FOG MT WASHINGTON LGT RAIN 34 34 100 SW44G53 N/A VSB 0 WCI 18 $$ VTZ005-007-008-191600- VERMONT CITY SKY/WX TMP DP RH WIND PRES REMARKS MONTPELIER CLOUDY 47 45 93 W12G18 29.08R BURLINGTON LGT RAIN 40 34 79 W18G29 29.17R $$ MAZ007-012-024-CTZ003-RIZ002-NYZ038-NYZ072-191600- SOUTHERN NEW ENGLAND AND NY CITY SKY/WX TMP DP RH WIND PRES REMARKS BOSTON CLOUDY 58 56 93 S16 29.14S WORCESTER RAIN 54 51 90 SW18G28 29.14S FOG NANTUCKET LGT RAIN 58 58 100 SW24 29.29F FOG PROVIDENCE RAIN 59 57 93 SW16G26 29.19F HARTFORD LGT RAIN 56 48 74 W18G30 29.19R ALBANY CLOUDY 41 29 62 W25G44 29.33R NEW YORK CITY PTSUNNY 53 36 52 W28G36 29.38R $$ ANZ081-ANZ082-ANZ150-NHZ014-MEZ023>029-191600- COASTAL MARINE OBSERVATIONS STATION/POSITION TIME TEMP WIND PRES WAVE AIR SEA DIR/SP/G HT/PER (UTC) (F) (DEG/KT/KT) (MB) (FT/S) MOUNT DESERT ROC 1400 56 170/ 32/ 37 989.5F MATINICUS ROCK 1400 55 190/ 32/ 34 987.5F ISLE OF SHOALS 1400 54 180/ 24/ 25 986.4F JEFFREYS LEDGE 1436 51 N/A 6/ 7 CASHES LEDGE BUO 1350 55 52 988.3 10/ 7 GEORGES BANK BUO 1350 62 55 999.3 9/ 8 $$ .............KEY.............. WCI - WIND CHILL TC - TEMPERATURE IN CELSIUS VSB - VISIBILITY IN MILES HX - HEAT INDEX FAIR- INDICATES FEW OR NO CLOUDS BELOW 12,000 FT, WITH NO SIGNIFICANT WEATHER AND/OR OBSTRUCTIONS TO VISIBILITY.

USA.gov is the U.S. government's official web portal to all federal, state and local government web resources and services.